Location: Petruro
(41.0333°N, 14.7833°E)
Time: 08:38:23
(UTC+00:00)

USA 290 - Pass Details

Date: 20 June 2021
Orbit: 401 x 412 km, 73.6° (Epoch: 10 July)

Event Time Altitude Azimuth Distance (km) Brightness Sun altitude
Exits shadow 01:11:03 41° 290° (WNW) 599 2.9 -19.0°
Maximum altitude 01:11:06 41° 293° (WNW) 599 2.9 -19.0°
Drops below altitude 10° 01:14:11 10° 6° (N) 1,469 6.0 -18.6°
Sets 01:16:18 0° 14° (NNE) 2,332 7.4 -18.4°
